Showing default

COSMOS 1880, 18339

Orbit data source: Space-Track

COSMOS 1880, 18339 is a payload satellite owned by UNKS (CIS) in LEO that was launched on Mon, 07 Sep 1987 UTC via a TSIKLON-3 launch vehicle from the Plesetsk Missile And Space Complex (PKMTR). Payload-class satellites include a variety of spacecraft equipped with specific instruments for various scientific and technological missions. These include communications satellites like Starlink; space stations such as the ISS; scientific satellites like the Hubble; Earth observation satellites from companies like Planet Labs, Umbra, and HawkEye 360; GPS; miniature CubeSats for education and research; and military/defense satellites.

Loading next visibility...
Identifier
18339, 1987-074F
Orbit
LEO
Country
Flag of CISCIS
Related business
Manufacturer
NPO PM
Mission
Defense Communications
Bus & Motor
STRELA-3, Unknown motor
Mass
225 kg wet, 225 kg dry
Launch date (UTC)
1987-09-07 (38 years ago)
Launch vehicle
TSIKLON-3
Launch site
Plesetsk Missile And Space Complex (PKMTR)
Object type
Payload
Rocket body
Debris
Shape & HBR
Cyl, 0.8 m
Radar Cross Section
1.257 m², Medium (>0.1 m² and < 1m²)

Expand to show TLE details & history
Last TLE update: 9 hours ago

TLE from 9 hours ago
0 COSMOS 1880
1 18339U 87074F   26061.77668008  .00000030  00000-0  10342-3 0  9993
2 18339  82.5662 331.2657 0010339  58.4578 356.5490 12.65533636777491
Epoch: 2026-03-02T18:38Z
TLE epoch observation values (Epoch: 2026-03-02T18:38:25.158Z)
Latitude
54.40984°
Longitude
-98.45229°
Altitude
1,401.066 km
Speed
7.168 km/s
True Right ascension
22h 46m 52s
True Declination
54° 15' 37"
Sunlit
Object was in daylight at epoch
Visualization orbit readout
Latitude
Unknown
Longitude
Unknown
Altitude
Unknown
Speed
Unknown
Apparent Right ascension
Unknown
Apparent Declination
Unknown
Sunlit
N/A
Visualization observer readout
Local Sidereal Time
07:10:43
Azimuth
Unknown
Elevation
Unknown
Doppler factor
Unknown
Orbital elements
Apogee altitude
1,405.543 km
Perigee altitude
1,389.465 km
Semi-major axis
7,775.641 km
Eccentricity
0.00103
Inclination
82.5662°
RAAN
331.2657°
Arg. of periapsis
58.4578°
True anomaly
356.54186°
Mean anomaly
356.549°
Eccentric anomaly
356.54543°
Mean motion
3.16547 °/min
Orbital period
113.73 mins
BSTAR
0.00010342
Loading maneuver chart data...
Computing Atmospheric mass density...
Loading historical data...
Loading historical data...
Loading historical data...
Loading historical data...
Loading historical data...
Loading historical data...
Loading historical data...

Documentation

Showing up to 5 results
|